owner,sensor,date,latitude,longitude,vertical_datum,direction_of_sea_water_velocity,sea_water_speed,upward_sea_water_velocity,qcFlag 
TABS,ioos:station:wmo:42045:1,2015-11-01T00:00:00Z,26.2168,-96.4998,2.0,187.7318727,56.19088894,-99999.0,'11111222,11111222,99999999' 
TABS,ioos:station:wmo:42045:1,2015-11-01T00:30:00Z,26.2168,-96.4998,2.0,189.6441726,72.94091102,-99999.0,'11111222,11111222,99999999' 
TABS,ioos:station:wmo:42045:1,2015-11-01T01:00:00Z,26.2168,-96.4998,2.0,191.3263914,74.031883,-99999.0,'11111222,11111222,99999999' 
TABS,ioos:station:wmo:42045:1,2015-11-01T01:30:00Z,26.2168,-96.4998,2.0,194.1234499,77.86372776,-99999.0,'11111222,11111222,99999999' 
TABS,ioos:station:wmo:42045:1,2015-11-01T02:00:00Z,26.2168,-96.4998,2.0,196.4537508,74.74082753,-99999.0,'11111222,11111222,99999999' 
TABS,ioos:station:wmo:42045:1,2015-11-01T02:30:00Z,26.2168,-96.4998,2.0,200.5784763,76.84337122,-99999.0,'11111222,11111222,99999999' 
TABS,ioos:station:wmo:42045:1,2015-11-01T03:00:00Z,26.2168,-96.4998,2.0,203.1375545,76.75390544,-99999.0,'11111222,11111222,99999999' 
TABS,ioos:station:wmo:42045:1,2015-11-01T03:30:00Z,26.2168,-96.4998,2.0,206.0957099,75.38484994,-99999.0,'11111222,11111222,99999999' 
TABS,ioos:station:wmo:42045:1,2015-11-01T04:00:00Z,26.2168,-96.4998,2.0,208.7916257,73.08517291,-99999.0,'11111222,11111222,99999999' 
TABS,ioos:station:wmo:42045:1,2015-11-01T04:30:00Z,26.2168,-96.4998,2.0,209.6919683,68.861633,-99999.0,'11111222,11111222,99999999' 
TABS,ioos:station:wmo:42045:1,2015-11-01T05:00:00Z,26.2168,-96.4998,2.0,210.1844251,68.9951136,-99999.0,'11111222,11111222,99999999' 
TABS,ioos:station:wmo:42045:1,2015-11-01T05:30:00Z,26.2168,-96.4998,2.0,211.8556724,62.99906825,-99999.0,'11111222,11111222,99999999' 
TABS,ioos:station:wmo:42045:1,2015-11-01T06:00:00Z,26.2168,-96.4998,2.0,213.0551769,63.85545631,-99999.0,'11111222,11111222,99999999' 
TABS,ioos:station:wmo:42045:1,2015-11-01T06:30:00Z,26.2168,-96.4998,2.0,212.6071207,58.71440368,-99999.0,'11111222,11111222,99999999' 
TABS,ioos:station:wmo:42045:1,2015-11-01T07:00:00Z,26.2168,-96.4998,2.0,214.8221734,60.62670451,-99999.0,'11111222,11111222,99999999' 
TABS,ioos:station:wmo:42045:1,2015-11-01T07:30:00Z,26.2168,-96.4998,2.0,216.4264549,56.11367837,-99999.0,'11111222,11111222,99999999' 
TABS,ioos:station:wmo:42045:1,2015-11-01T08:00:00Z,26.2168,-96.4998,2.0,221.4342581,53.327146,-99999.0,'11111222,11111222,99999999' 
TABS,ioos:station:wmo:42045:1,2015-11-01T08:30:00Z,26.2168,-96.4998,2.0,222.0400392,48.89093679,-99999.0,'11111222,11111222,99999999' 
TABS,ioos:station:wmo:42045:1,2015-11-01T09:00:00Z,26.2168,-96.4998,2.0,226.9302672,49.11523185,-99999.0,'11111222,11111222,99999999' 
TABS,ioos:station:wmo:42045:1,2015-11-01T09:30:00Z,26.2168,-96.4998,2.0,231.8169196,45.39191558,-99999.0,'11111222,11111222,99999999' 
TABS,ioos:station:wmo:42045:1,2015-11-01T10:00:00Z,26.2168,-96.4998,2.0,229.8002613,40.97917154,-99999.0,'11111222,11111222,99999999' 
TABS,ioos:station:wmo:42045:1,2015-11-01T10:30:00Z,26.2168,-96.4998,2.0,236.5812436,40.36321345,-99999.0,'11111222,11111222,99999999' 
TABS,ioos:station:wmo:42045:1,2015-11-01T11:00:00Z,26.2168,-96.4998,2.0,236.8273451,38.67250315,-99999.0,'11111222,11111222,99999999' 
TABS,ioos:station:wmo:42045:1,2015-11-01T11:30:00Z,26.2168,-96.4998,2.0,236.9220569,37.10324245,-99999.0,'11111222,11111222,99999999' 
TABS,ioos:station:wmo:42045:1,2015-11-01T12:00:00Z,26.2168,-96.4998,2.0,241.7212549,34.70140055,-99999.0,'11111222,11111222,99999999' 
TABS,ioos:station:wmo:42045:1,2015-11-01T12:30:00Z,26.2168,-96.4998,2.0,242.5770571,31.3755478,-99999.0,'11111222,11111222,99999999' 
TABS,ioos:station:wmo:42045:1,2015-11-01T13:00:00Z,26.2168,-96.4998,2.0,246.5284171,30.90725805,-99999.0,'11111222,11111222,99999999' 
TABS,ioos:station:wmo:42045:1,2015-11-01T13:30:00Z,26.2168,-96.4998,2.0,248.5057833,27.67457497,-99999.0,'11111222,11111222,99999999' 
TABS,ioos:station:wmo:42045:1,2015-11-01T14:00:00Z,26.2168,-96.4998,2.0,245.3366268,26.40909692,-99999.0,'11111222,11111222,99999999' 
TABS,ioos:station:wmo:42045:1,2015-11-01T14:30:00Z,26.2168,-96.4998,2.0,247.8257455,20.85217015,-99999.0,'11111222,11111222,99999999' 
TABS,ioos:station:wmo:42045:1,2015-11-01T15:00:00Z,26.2168,-96.4998,2.0,251.0595011,19.00918988,-99999.0,'11111222,11111222,99999999' 
TABS,ioos:station:wmo:42045:1,2015-11-01T15:30:00Z,26.2168,-96.4998,2.0,244.0475471,14.21326141,-99999.0,'11111222,11111222,99999999' 
TABS,ioos:station:wmo:42045:1,2015-11-01T16:00:00Z,26.2168,-96.4998,2.0,247.4621712,16.04540121,-99999.0,'11111222,11111222,99999999' 
TABS,ioos:station:wmo:42045:1,2015-11-01T16:30:00Z,26.2168,-96.4998,2.0,244.8183543,15.37074169,-99999.0,'11111222,11111222,99999999' 
TABS,ioos:station:wmo:42045:1,2015-11-01T17:00:00Z,26.2168,-96.4998,2.0,245.8178477,11.9375123,-99999.0,'11111222,11111222,99999999' 
TABS,ioos:station:wmo:42045:1,2015-11-01T17:30:00Z,26.2168,-96.4998,2.0,248.1242226,10.06469572,-99999.0,'11111222,11111222,99999999' 
TABS,ioos:station:wmo:42045:1,2015-11-01T18:00:00Z,26.2168,-96.4998,2.0,242.469772,7.7021101,-99999.0,'11133222,11111222,99999999' 
TABS,ioos:station:wmo:42045:1,2015-11-01T18:30:00Z,26.2168,-96.4998,2.0,238.5534167,8.146471629,-99999.0,'11133222,11111222,99999999' 
TABS,ioos:station:wmo:42045:1,2015-11-01T19:00:00Z,26.2168,-96.4998,2.0,218.6248143,5.158420301,-99999.0,'11133222,11111222,99999999' 
TABS,ioos:station:wmo:42045:1,2015-11-01T19:30:00Z,26.2168,-96.4998,2.0,231.9526255,4.38092456,-99999.0,'11133222,11111222,99999999' 
TABS,ioos:station:wmo:42045:1,2015-11-01T20:00:00Z,26.2168,-96.4998,2.0,230.324652,4.495386524,-99999.0,'11133222,11111222,99999999' 
TABS,ioos:station:wmo:42045:1,2015-11-01T20:30:00Z,26.2168,-96.4998,2.0,216.1764459,4.794350842,-99999.0,'11133222,11111222,99999999' 
TABS,ioos:station:wmo:42045:1,2015-11-01T21:00:00Z,26.2168,-96.4998,2.0,201.5257682,6.568119975,-99999.0,'11133222,11111222,99999999' 
TABS,ioos:station:wmo:42045:1,2015-11-01T21:30:00Z,26.2168,-96.4998,2.0,176.0186002,8.209811204,-99999.0,'11133222,11111222,99999999' 
TABS,ioos:station:wmo:42045:1,2015-11-01T22:00:00Z,26.2168,-96.4998,2.0,166.3749076,8.108174887,-99999.0,'11133222,11111222,99999999' 
TABS,ioos:station:wmo:42045:1,2015-11-01T22:30:00Z,26.2168,-96.4998,2.0,170.6937144,9.646968436,-99999.0,'11133222,11111222,99999999' 
TABS,ioos:station:wmo:42045:1,2015-11-01T23:00:00Z,26.2168,-96.4998,2.0,158.4802995,9.814117383,-99999.0,'11133222,11111222,99999999' 
TABS,ioos:station:wmo:42045:1,2015-11-01T23:30:00Z,26.2168,-96.4998,2.0,167.9959196,11.01076746,-99999.0,'11111222,11111222,99999999' 
TABS,ioos:station:wmo:42045:1,2015-11-02T00:00:00Z,26.2168,-96.4998,2.0,160.5353135,10.38343392,-99999.0,'11111222,11111222,99999999' 
TABS,ioos:station:wmo:42045:1,2015-11-02T00:30:00Z,26.2168,-96.4998,2.0,157.6169598,11.34471242,-99999.0,'11111222,11111222,99999999' 
TABS,ioos:station:wmo:42045:1,2015-11-02T01:00:00Z,26.2168,-96.4998,2.0,159.4169147,34.92976381,-99999.0,'11111222,11111222,99999999' 
TABS,ioos:station:wmo:42045:1,2015-11-02T01:30:00Z,26.2168,-96.4998,2.0,173.7425008,57.25107597,-99999.0,'11111222,11111222,99999999' 
TABS,ioos:station:wmo:42045:1,2015-11-02T02:00:00Z,26.2168,-96.4998,2.0,174.8399935,59.93286411,-99999.0,'11111222,11111222,99999999' 
TABS,ioos:station:wmo:42045:1,2015-11-02T02:30:00Z,26.2168,-96.4998,2.0,178.712574,58.31471598,-99999.0,'11111222,11111222,99999999' 
TABS,ioos:station:wmo:42045:1,2015-11-02T03:00:00Z,26.2168,-96.4998,2.0,183.6805201,57.16792282,-99999.0,'11111222,11111222,99999999' 
TABS,ioos:station:wmo:42045:1,2015-11-02T03:30:00Z,26.2168,-96.4998,2.0,183.629201,56.55342607,-99999.0,'11111222,11111222,99999999' 
TABS,ioos:station:wmo:42045:1,2015-11-02T04:00:00Z,26.2168,-96.4998,2.0,185.1887511,57.0538167,-99999.0,'11111222,11111222,99999999' 
TABS,ioos:station:wmo:42045:1,2015-11-02T04:30:00Z,26.2168,-96.4998,2.0,187.8436572,56.05446815,-99999.0,'11111222,11111222,99999999' 
TABS,ioos:station:wmo:42045:1,2015-11-02T05:00:00Z,26.2168,-96.4998,2.0,187.6540207,56.53372268,-99999.0,'11111222,11111222,99999999' 
TABS,ioos:station:wmo:42045:1,2015-11-02T05:30:00Z,26.2168,-96.4998,2.0,189.3155107,55.90734657,-99999.0,'11111222,11111222,99999999' 
TABS,ioos:station:wmo:42045:1,2015-11-02T06:00:00Z,26.2168,-96.4998,2.0,191.0068139,53.42278166,-99999.0,'11111222,11111222,99999999' 
TABS,ioos:station:wmo:42045:1,2015-11-02T06:30:00Z,26.2168,-96.4998,2.0,193.985237,52.0117852,-99999.0,'11111222,11111222,99999999' 
TABS,ioos:station:wmo:42045:1,2015-11-02T07:00:00Z,26.2168,-96.4998,2.0,194.0576897,51.25505731,-99999.0,'11111222,11111222,99999999' 
TABS,ioos:station:wmo:42045:1,2015-11-02T07:30:00Z,26.2168,-96.4998,2.0,197.9005193,50.20017729,-99999.0,'11111222,11111222,99999999' 
TABS,ioos:station:wmo:42045:1,2015-11-02T08:00:00Z,26.2168,-96.4998,2.0,200.2649345,49.10992771,-99999.0,'11111222,11111222,99999999' 
TABS,ioos:station:wmo:42045:1,2015-11-02T08:30:00Z,26.2168,-96.4998,2.0,198.9750972,47.94542418,-99999.0,'11111222,11111222,99999999' 
TABS,ioos:station:wmo:42045:1,2015-11-02T09:00:00Z,26.2168,-96.4998,2.0,201.9728234,45.86138354,-99999.0,'11111222,11111222,99999999' 
TABS,ioos:station:wmo:42045:1,2015-11-02T09:30:00Z,26.2168,-96.4998,2.0,203.9289134,43.66293852,-99999.0,'11111222,11111222,99999999' 
TABS,ioos:station:wmo:42045:1,2015-11-02T10:00:00Z,26.2168,-96.4998,2.0,203.5286087,41.45675578,-99999.0,'11111222,11111222,99999999' 
TABS,ioos:station:wmo:42045:1,2015-11-02T10:30:00Z,26.2168,-96.4998,2.0,205.6095094,39.70019647,-99999.0,'11111222,11111222,99999999' 
TABS,ioos:station:wmo:42045:1,2015-11-02T11:00:00Z,26.2168,-96.4998,2.0,205.677384,35.51749147,-99999.0,'11111222,11111222,99999999' 
TABS,ioos:station:wmo:42045:1,2015-11-02T11:30:00Z,26.2168,-96.4998,2.0,206.6732929,30.69679625,-99999.0,'11111222,11111222,99999999' 
TABS,ioos:station:wmo:42045:1,2015-11-02T12:00:00Z,26.2168,-96.4998,2.0,205.4181366,29.0523407,-99999.0,'11111222,11111222,99999999' 
TABS,ioos:station:wmo:42045:1,2015-11-02T12:30:00Z,26.2168,-96.4998,2.0,206.6219979,26.86860622,-99999.0,'11111222,11111222,99999999' 
TABS,ioos:station:wmo:42045:1,2015-11-02T13:00:00Z,26.2168,-96.4998,2.0,212.9985034,22.98844927,-99999.0,'11111222,11111222,99999999' 
TABS,ioos:station:wmo:42045:1,2015-11-02T13:30:00Z,26.2168,-96.4998,2.0,206.7955345,18.87703896,-99999.0,'11111222,11111222,99999999' 
TABS,ioos:station:wmo:42045:1,2015-11-02T14:00:00Z,26.2168,-96.4998,2.0,210.3717307,16.77174111,-99999.0,'11111222,11111222,99999999' 
TABS,ioos:station:wmo:42045:1,2015-11-02T14:30:00Z,26.2168,-96.4998,2.0,203.8564745,17.60410179,-99999.0,'11111222,11111222,99999999' 
TABS,ioos:station:wmo:42045:1,2015-11-02T15:00:00Z,26.2168,-96.4998,2.0,202.0213405,16.42858789,-99999.0,'11111222,11111222,99999999' 
TABS,ioos:station:wmo:42045:1,2015-11-02T15:30:00Z,26.2168,-96.4998,2.0,206.0817427,16.4446283,-99999.0,'11111222,11111222,99999999' 
TABS,ioos:station:wmo:42045:1,2015-11-02T16:00:00Z,26.2168,-96.4998,2.0,197.6181566,14.86737704,-99999.0,'11111222,11111222,99999999' 
TABS,ioos:station:wmo:42045:1,2015-11-02T16:30:00Z,26.2168,-96.4998,2.0,186.2914766,13.04859379,-99999.0,'11111222,11111222,99999999' 
TABS,ioos:station:wmo:42045:1,2015-11-02T17:00:00Z,26.2168,-96.4998,2.0,156.1676567,22.32345851,-99999.0,'11111222,11111222,99999999' 
TABS,ioos:station:wmo:42045:1,2015-11-02T17:30:00Z,26.2168,-96.4998,2.0,152.5922782,30.41381265,-99999.0,'11111222,11111222,99999999' 
TABS,ioos:station:wmo:42045:1,2015-11-02T18:00:00Z,26.2168,-96.4998,2.0,161.5550763,36.94805272,-99999.0,'11111222,11111222,99999999' 
TABS,ioos:station:wmo:42045:1,2015-11-02T18:30:00Z,26.2168,-96.4998,2.0,166.838574,43.04054019,-99999.0,'11111222,11111222,99999999' 
TABS,ioos:station:wmo:42045:1,2015-11-02T19:00:00Z,26.2168,-96.4998,2.0,169.2958078,46.73316595,-99999.0,'11111222,11111222,99999999' 
TABS,ioos:station:wmo:42045:1,2015-11-02T19:30:00Z,26.2168,-96.4998,2.0,171.6822992,47.56025652,-99999.0,'11111222,11111222,99999999' 
TABS,ioos:station:wmo:42045:1,2015-11-02T20:00:00Z,26.2168,-96.4998,2.0,172.1568587,49.09928309,-99999.0,'11111222,11111222,99999999' 
TABS,ioos:station:wmo:42045:1,2015-11-02T20:30:00Z,26.2168,-96.4998,2.0,171.5288942,52.54320603,-99999.0,'11111222,11111222,99999999' 
TABS,ioos:station:wmo:42045:1,2015-11-02T21:00:00Z,26.2168,-96.4998,2.0,171.6550469,52.09150795,-99999.0,'11111222,11111222,99999999' 
TABS,ioos:station:wmo:42045:1,2015-11-02T21:30:00Z,26.2168,-96.4998,2.0,171.124144,53.14640251,-99999.0,'11111222,11111222,99999999' 
TABS,ioos:station:wmo:42045:1,2015-11-02T22:00:00Z,26.2168,-96.4998,2.0,172.582447,52.75141894,-99999.0,'11111222,11111222,99999999' 
TABS,ioos:station:wmo:42045:1,2015-11-02T22:30:00Z,26.2168,-96.4998,2.0,172.5788224,54.50655098,-99999.0,'11111222,11111222,99999999' 
TABS,ioos:station:wmo:42045:1,2015-11-02T23:00:00Z,26.2168,-96.4998,2.0,172.5053937,51.75208788,-99999.0,'11111222,11111222,99999999' 
TABS,ioos:station:wmo:42045:1,2015-11-02T23:30:00Z,26.2168,-96.4998,2.0,173.6424347,51.56710773,-99999.0,'11111222,11111222,99999999' 
TABS,ioos:station:wmo:42045:1,2015-11-03T00:00:00Z,26.2168,-96.4998,2.0,175.3833788,51.06566459,-99999.0,'11111222,11111222,99999999' 
TABS,ioos:station:wmo:42045:1,2015-11-03T00:30:00Z,26.2168,-96.4998,2.0,176.0871031,52.17160243,-99999.0,'11111222,11111222,99999999' 
TABS,ioos:station:wmo:42045:1,2015-11-03T01:00:00Z,26.2168,-96.4998,2.0,179.3974175,50.41278608,-99999.0,'11111222,11111222,99999999' 
TABS,ioos:station:wmo:42045:1,2015-11-03T01:30:00Z,26.2168,-96.4998,2.0,183.3675915,49.87613658,-99999.0,'11111222,11111222,99999999' 
TABS,ioos:station:wmo:42045:1,2015-11-03T02:00:00Z,26.2168,-96.4998,2.0,186.2047211,49.59051926,-99999.0,'11111222,11111222,99999999' 
TABS,ioos:station:wmo:42045:1,2015-11-03T02:30:00Z,26.2168,-96.4998,2.0,188.2234792,47.60956311,-99999.0,'11111222,11111222,99999999' 
TABS,ioos:station:wmo:42045:1,2015-11-03T03:00:00Z,26.2168,-96.4998,2.0,191.9364233,43.03045433,-99999.0,'11111222,11111222,99999999' 
TABS,ioos:station:wmo:42045:1,2015-11-03T03:30:00Z,26.2168,-96.4998,2.0,196.2232003,43.02320885,-99999.0,'11111222,11111222,99999999' 
TABS,ioos:station:wmo:42045:1,2015-11-03T04:00:00Z,26.2168,-96.4998,2.0,199.6970298,39.90497964,-99999.0,'11111222,11111222,99999999' 
TABS,ioos:station:wmo:42045:1,2015-11-03T04:30:00Z,26.2168,-96.4998,2.0,198.8122886,36.46817791,-99999.0,'11111222,11111222,99999999' 
TABS,ioos:station:wmo:42045:1,2015-11-03T05:00:00Z,26.2168,-96.4998,2.0,197.5576686,38.22060308,-99999.0,'11111222,11111222,99999999' 
TABS,ioos:station:wmo:42045:1,2015-11-03T05:30:00Z,26.2168,-96.4998,2.0,203.4817263,35.83790312,-99999.0,'11111222,11111222,99999999' 
TABS,ioos:station:wmo:42045:1,2015-11-03T06:00:00Z,26.2168,-96.4998,2.0,200.3980279,32.30581991,-99999.0,'11111222,11111222,99999999' 
TABS,ioos:station:wmo:42045:1,2015-11-03T06:30:00Z,26.2168,-96.4998,2.0,196.8797029,30.0653588,-99999.0,'11111222,11111222,99999999' 
TABS,ioos:station:wmo:42045:1,2015-11-03T07:00:00Z,26.2168,-96.4998,2.0,196.9565104,27.7044473,-99999.0,'11111222,11111222,99999999' 
TABS,ioos:station:wmo:42045:1,2015-11-03T07:30:00Z,26.2168,-96.4998,2.0,199.988707,25.07027124,-99999.0,'11111222,11111222,99999999' 
TABS,ioos:station:wmo:42045:1,2015-11-03T08:00:00Z,26.2168,-96.4998,2.0,198.3719399,25.98445112,-99999.0,'11111222,11111222,99999999' 
TABS,ioos:station:wmo:42045:1,2015-11-03T08:30:00Z,26.2168,-96.4998,2.0,195.3137133,23.05874455,-99999.0,'11111222,11111222,99999999' 
TABS,ioos:station:wmo:42045:1,2015-11-03T09:00:00Z,26.2168,-96.4998,2.0,193.3787176,21.56526142,-99999.0,'11111222,11111222,99999999' 
TABS,ioos:station:wmo:42045:1,2015-11-03T09:30:00Z,26.2168,-96.4998,2.0,188.7157303,20.19319687,-99999.0,'11111222,11111222,99999999' 
TABS,ioos:station:wmo:42045:1,2015-11-03T10:00:00Z,26.2168,-96.4998,2.0,185.5814124,17.68384574,-99999.0,'11111222,11111222,99999999' 
TABS,ioos:station:wmo:42045:1,2015-11-03T10:30:00Z,26.2168,-96.4998,2.0,187.9410461,18.02283551,-99999.0,'11111222,11111222,99999999' 
TABS,ioos:station:wmo:42045:1,2015-11-03T11:00:00Z,26.2168,-96.4998,2.0,181.1172482,15.3829256,-99999.0,'11111222,11111222,99999999' 
TABS,ioos:station:wmo:42045:1,2015-11-03T11:30:00Z,26.2168,-96.4998,2.0,188.1733445,14.91147209,-99999.0,'11111222,11111222,99999999' 
TABS,ioos:station:wmo:42045:1,2015-11-03T12:00:00Z,26.2168,-96.4998,2.0,182.9497413,14.37905421,-99999.0,'11111222,11111222,99999999' 
TABS,ioos:station:wmo:42045:1,2015-11-03T12:30:00Z,26.2168,-96.4998,2.0,190.4684617,12.82345507,-99999.0,'11111222,11111222,99999999' 
TABS,ioos:station:wmo:42045:1,2015-11-03T13:00:00Z,26.2168,-96.4998,2.0,186.2181258,12.46333021,-99999.0,'11111222,11111222,99999999' 
TABS,ioos:station:wmo:42045:1,2015-11-03T13:30:00Z,26.2168,-96.4998,2.0,179.4705146,12.99055426,-99999.0,'11111222,11111222,99999999' 
TABS,ioos:station:wmo:42045:1,2015-11-03T14:00:00Z,26.2168,-96.4998,2.0,179.7468303,13.59013245,-99999.0,'11111222,11111222,99999999' 
TABS,ioos:station:wmo:42045:1,2015-11-03T14:30:00Z,26.2168,-96.4998,2.0,179.5282311,12.15041152,-99999.0,'11111222,11111222,99999999' 
TABS,ioos:station:wmo:42045:1,2015-11-03T15:00:00Z,26.2168,-96.4998,2.0,174.8348661,10.55284796,-99999.0,'11111222,11111222,99999999' 
TABS,ioos:station:wmo:42045:1,2015-11-03T15:30:00Z,26.2168,-96.4998,2.0,183.2271396,11.36802973,-99999.0,'11111222,11111222,99999999' 
TABS,ioos:station:wmo:42045:1,2015-11-03T16:00:00Z,26.2168,-96.4998,2.0,180.2346064,7.320061475,-99999.0,'11133222,11111222,99999999' 
TABS,ioos:station:wmo:42045:1,2015-11-03T16:30:00Z,26.2168,-96.4998,2.0,180.3049565,7.510106524,-99999.0,'11133222,11111222,99999999' 
TABS,ioos:station:wmo:42045:1,2015-11-03T17:00:00Z,26.2168,-96.4998,2.0,175.6837721,4.252058325,-99999.0,'11133222,11111222,99999999' 
TABS,ioos:station:wmo:42045:1,2015-11-03T17:30:00Z,26.2168,-96.4998,2.0,173.8843003,3.379230682,-99999.0,'11133222,11111222,99999999' 
TABS,ioos:station:wmo:42045:1,2015-11-03T18:00:00Z,26.2168,-96.4998,2.0,127.0315616,6.376025408,-99999.0,'11133222,11111222,99999999' 
TABS,ioos:station:wmo:42045:1,2015-11-03T18:30:00Z,26.2168,-96.4998,2.0,110.4902696,7.141855501,-99999.0,'11133222,11111222,99999999' 
TABS,ioos:station:wmo:42045:1,2015-11-03T19:00:00Z,26.2168,-96.4998,2.0,116.8248315,9.861161189,-99999.0,'11133222,11111222,99999999' 
TABS,ioos:station:wmo:42045:1,2015-11-03T19:30:00Z,26.2168,-96.4998,2.0,112.2983559,12.20249974,-99999.0,'11111222,11111222,99999999' 
TABS,ioos:station:wmo:42045:1,2015-11-03T20:00:00Z,26.2168,-96.4998,2.0,126.0702221,12.75524206,-99999.0,'11111222,11111222,99999999' 
TABS,ioos:station:wmo:42045:1,2015-11-03T20:30:00Z,26.2168,-96.4998,2.0,116.5649891,8.497058314,-99999.0,'11133222,11111222,99999999' 
TABS,ioos:station:wmo:42045:1,2015-11-03T21:00:00Z,26.2168,-96.4998,2.0,115.6767556,15.00134661,-99999.0,'11111222,11111222,99999999' 
TABS,ioos:station:wmo:42045:1,2015-11-03T21:30:00Z,26.2168,-96.4998,2.0,110.2646792,17.03438875,-99999.0,'11111222,11111222,99999999' 
TABS,ioos:station:wmo:42045:1,2015-11-03T22:00:00Z,26.2168,-96.4998,2.0,120.4635782,15.32569737,-99999.0,'11111222,11111222,99999999' 
TABS,ioos:station:wmo:42045:1,2015-11-03T22:30:00Z,26.2168,-96.4998,2.0,125.336218,17.86039753,-99999.0,'11111222,11111222,99999999' 
TABS,ioos:station:wmo:42045:1,2015-11-03T23:00:00Z,26.2168,-96.4998,2.0,117.8003954,18.4607963,-99999.0,'11111222,11111222,99999999' 
TABS,ioos:station:wmo:42045:1,2015-11-03T23:30:00Z,26.2168,-96.4998,2.0,128.509614,20.26830037,-99999.0,'11111222,11111222,99999999' 
TABS,ioos:station:wmo:42045:1,2015-11-04T00:00:00Z,26.2168,-96.4998,2.0,137.6106237,18.00748733,-99999.0,'11111222,11111222,99999999' 
TABS,ioos:station:wmo:42045:1,2015-11-04T00:30:00Z,26.2168,-96.4998,2.0,144.4554079,19.62725146,-99999.0,'11111222,11111222,99999999' 
TABS,ioos:station:wmo:42045:1,2015-11-04T01:00:00Z,26.2168,-96.4998,2.0,151.3968682,18.36078702,-99999.0,'11111222,11111222,99999999' 
TABS,ioos:station:wmo:42045:1,2015-11-04T01:30:00Z,26.2168,-96.4998,2.0,153.5891665,19.91896584,-99999.0,'11111222,11111222,99999999' 
TABS,ioos:station:wmo:42045:1,2015-11-04T02:00:00Z,26.2168,-96.4998,2.0,159.7198088,18.46462564,-99999.0,'11111222,11111222,99999999' 
TABS,ioos:station:wmo:42045:1,2015-11-04T02:30:00Z,26.2168,-96.4998,2.0,162.7132434,16.72548355,-99999.0,'11111222,11111222,99999999' 
TABS,ioos:station:wmo:42045:1,2015-11-04T03:00:00Z,26.2168,-96.4998,2.0,163.3680776,17.88837611,-99999.0,'11111222,11111222,99999999' 
TABS,ioos:station:wmo:42045:1,2015-11-04T03:30:00Z,26.2168,-96.4998,2.0,170.9596654,19.41111537,-99999.0,'11111222,11111222,99999999' 
TABS,ioos:station:wmo:42045:1,2015-11-04T04:00:00Z,26.2168,-96.4998,2.0,176.7542519,20.31257985,-99999.0,'11111222,11111222,99999999' 
TABS,ioos:station:wmo:42045:1,2015-11-04T04:30:00Z,26.2168,-96.4998,2.0,169.3820443,18.6696572,-99999.0,'11111222,11111222,99999999' 
TABS,ioos:station:wmo:42045:1,2015-11-04T05:00:00Z,26.2168,-96.4998,2.0,177.6088127,18.93648595,-99999.0,'11111222,11111222,99999999' 
TABS,ioos:station:wmo:42045:1,2015-11-04T05:30:00Z,26.2168,-96.4998,2.0,180.9488776,19.92273325,-99999.0,'11111222,11111222,99999999' 
TABS,ioos:station:wmo:42045:1,2015-11-04T06:00:00Z,26.2168,-96.4998,2.0,185.2424079,19.37103508,-99999.0,'11111222,11111222,99999999' 
TABS,ioos:station:wmo:42045:1,2015-11-04T06:30:00Z,26.2168,-96.4998,2.0,185.5599955,18.57740832,-99999.0,'11111222,11111222,99999999' 
TABS,ioos:station:wmo:42045:1,2015-11-04T07:00:00Z,26.2168,-96.4998,2.0,184.2113975,18.7907424,-99999.0,'11111222,11111222,99999999' 
TABS,ioos:station:wmo:42045:1,2015-11-04T07:30:00Z,26.2168,-96.4998,2.0,186.3707908,18.47409267,-99999.0,'11111222,11111222,99999999' 
TABS,ioos:station:wmo:42045:1,2015-11-04T08:00:00Z,26.2168,-96.4998,2.0,182.634968,19.14024033,-99999.0,'11111222,11111222,99999999' 
TABS,ioos:station:wmo:42045:1,2015-11-04T08:30:00Z,26.2168,-96.4998,2.0,182.3550952,19.46644549,-99999.0,'11111222,11111222,99999999' 
TABS,ioos:station:wmo:42045:1,2015-11-04T09:00:00Z,26.2168,-96.4998,2.0,189.0810188,17.54998006,-99999.0,'11111222,11111222,99999999' 
TABS,ioos:station:wmo:42045:1,2015-11-04T09:30:00Z,26.2168,-96.4998,2.0,185.7577707,18.04102547,-99999.0,'11111222,11111222,99999999' 
TABS,ioos:station:wmo:42045:1,2015-11-04T10:00:00Z,26.2168,-96.4998,2.0,189.0975522,18.08754267,-99999.0,'11111222,11111222,99999999' 
TABS,ioos:station:wmo:42045:1,2015-11-04T10:30:00Z,26.2168,-96.4998,2.0,190.4372405,20.86525341,-99999.0,'11111222,11111222,99999999' 
TABS,ioos:station:wmo:42045:1,2015-11-04T11:00:00Z,26.2168,-96.4998,2.0,193.0679001,16.93868059,-99999.0,'11111222,11111222,99999999' 
TABS,ioos:station:wmo:42045:1,2015-11-04T11:30:00Z,26.2168,-96.4998,2.0,194.0092307,15.57321418,-99999.0,'11111222,11111222,99999999' 
TABS,ioos:station:wmo:42045:1,2015-11-04T12:00:00Z,26.2168,-96.4998,2.0,202.8193919,11.91238011,-99999.0,'11111222,11111222,99999999' 
TABS,ioos:station:wmo:42045:1,2015-11-04T12:30:00Z,26.2168,-96.4998,2.0,193.9157829,11.55927333,-99999.0,'11111222,11111222,99999999' 
TABS,ioos:station:wmo:42045:1,2015-11-04T13:00:00Z,26.2168,-96.4998,2.0,200.469725,9.350427798,-99999.0,'11133222,11111222,99999999' 
TABS,ioos:station:wmo:42045:1,2015-11-04T13:30:00Z,26.2168,-96.4998,2.0,205.5208542,8.100382707,-99999.0,'11133222,11111222,99999999' 
TABS,ioos:station:wmo:42045:1,2015-11-04T14:00:00Z,26.2168,-96.4998,2.0,201.801148,7.916192266,-99999.0,'11133222,11111222,99999999' 
TABS,ioos:station:wmo:42045:1,2015-11-04T14:30:00Z,26.2168,-96.4998,2.0,192.4510517,5.61199608,-99999.0,'11133222,11111222,99999999' 
TABS,ioos:station:wmo:42045:1,2015-11-04T15:00:00Z,26.2168,-96.4998,2.0,208.6336185,7.804492296,-99999.0,'11133222,11111222,99999999' 
TABS,ioos:station:wmo:42045:1,2015-11-04T15:30:00Z,26.2168,-96.4998,2.0,172.1961391,6.702066845,-99999.0,'11133222,11111222,99999999' 
TABS,ioos:station:wmo:42045:1,2015-11-04T16:00:00Z,26.2168,-96.4998,2.0,154.6949076,5.287343378,-99999.0,'11133222,11111222,99999999' 